TIME,DELAY(SENSOR),PRES,OXYGEN,RAWTEMP,T(OPTODE),TCPHASE,FLUOR,BETA(BETA700),BETA(BETA412),BETA(BETA440),CDOM,C(CSC),ED(ED411.90),ED(ED443.80),ED(ED489.40),ED(ED554.70),LU(LU412.20),LU(LU443.80),LU(LU489.40),LU(LU555.00),COMP,TILTX,TILTY,CHECK
1365807157,5804,853.3900146484375000,168.0639953613281200,455.7304077148437500,8.8967428207397460,39.2860298156738300,52,104,97,80,80,11464,2146959835,2147516306,2147288356,2147499894,2147086125,2146922093,2147706541,2147120749,657,-1,8,28530
1365810754,5807,974.3300170898438000,217.8592987060547000,526.5167846679688000,6.7044138908386230,37.3106193542480500,52,103,98,79,80,11463,2146959122,2147518701,2147298569,2147517440,2147085056,2146920612,2147724306,2147121005,522,-1,8,33181
1365814354,5804,1022.0499877929688000,227.6419982910156200,537.5554199218750000,6.3594551086425780,36.9669799804687500,52,101,98,79,80,11461,2146962002,2147518208,2147299309,2147515785,2147086756,2146915282,2147724416,2147122532,3295,0,8,24711
1365817954,5806,1022.8099975585938000,232.3184967041015600,539.7673950195312000,6.2902178764343260,36.7564086914062500,53,104,98,79,81,11459,2146960237,2147516443,2147301366,2147517293,2147087369,2146917366,2147724681,2147121974,3202,-1,8,11314
1365821554,5806,1027.7500000000000000,229.9810943603515600,539.9627075195312000,6.2841010093688965,36.8841590881347660,51,101,99,78,81,11458,2146958098,2147520219,2147297179,2147518080,2147085284,2146916544,2147728923,2147120201,3516,0,8,17237
1365825154,5806,1023.4400024414062000,231.6013031005859400,541.4498291015625000,6.2375321388244630,36.8249397277832000,51,106,98,80,81,11447,2146961289,2147517284,2147299730,2147518555,2147085933,2146918692,2147725266,2147121600,471,0,8,33208
1365828754,5803,1028.4200439453125000,237.5279998779297000,544.3707275390625000,6.1460108757019040,36.5670509338378900,53,105,97,79,81,11367,2146959305,2147522541,2147300041,2147518381,2147083858,2146920064,2147725979,2147120310,3123,0,8,26327
1365832354,5808,1020.9199829101562000,238.8634948730468800,545.4605712890625000,6.1118450164794920,36.5175781250000000,52,103,98,79,80,11453,2146961581,2147521316,2147302144,2147520950,2147086070,2146920347,2147726555,2147120566,225,-1,8,37520
1365835954,5803,1023.7899780273438000,239.0615997314453000,546.8082885742188000,6.0695838928222660,36.5317802429199200,51,103,97,80,80,11462,2146965010,2147521901,2147297426,2147516662,2147087177,2146921572,2147726656,2147119917,3224,-1,8,63115
1365839554,5807,1031.2900390625000000,239.6184997558593800,545.1378784179688000,6.1219620704650880,36.4732398986816400,52,105,96,80,81,11463,2146962230,2147520118,2147298395,2147516123,2147085622,2146920146,2147725750,2147122358,3291,-1,8,4738
1365843154,5805,1036.8399658203125000,236.2655029296875000,544.1035766601562000,6.1543831825256350,36.6277809143066400,52,101,98,79,80,11457,2146963766,2147522486,2147295972,2147518912,2147087030,2146921307,2147727323,2147121353,3150,-1,8,38812
1365846754,5808,1032.7700195312500000,237.0406951904297000,544.7114868164062000,6.1353302001953125,36.5976409912109400,52,105,99,79,80,11457,2146960576,2147519588,2147298240,2147517074,2147083465,2146918500,2147727734,2147121106,106,-1,8,57913
1365850354,5804,1016.2800292968750000,235.3511962890625000,542.1104125976562000,6.2168388366699220,36.6390113830566400,52,102,96,80,81,11453,2146961179,2147519497,2147299721,2147516260,2147085348,2146911232,2147726253,2147122029,2968,-1,8,56006
1365853954,5807,1029.5500488281250000,236.6519012451172000,542.6296997070312000,6.2005710601806640,36.5805206298828100,53,102,99,79,81,11457,2146958921,2147521801,2147297773,2147515812,2147086756,2146917284,2147726848,2147122075,3402,-1,8,50566
1365857554,5807,1021.2299804687500000,232.5986938476562500,540.4874877929688000,6.2676720619201660,36.7545394897460940,52,103,102,80,81,11453,2146961142,2147520502,2147297270,2147519113,2147085750,2146917942,2147728557,2147121545,218,0,8,18711
1365861154,5805,1022.4299926757812000,232.5341949462890600,542.0651855468750000,6.2182559967041020,36.7867088317871100,53,107,96,81,81,11442,2146960402,2147518674,2147299529,2147517065,2147085010,2146921197,2147723008,2147122514,3543,0,8,53425
1365864754,5807,1023.6500244140625000,235.1585998535156200,543.0919189453125000,6.1860890388488770,36.6667709350585940,52,104,98,79,81,11450,2146958637,2147518208,2147297819,2147517403,2147086628,2146915940,2147722953,2147123638,125,0,8,44516
1365868354,5806,1026.4200439453125000,233.3796997070312500,540.9838867187500000,6.2521228790283200,36.7228202819824200,51,101,96,80,80,11446,2146963529,2147518454,2147298203,2147517330,2147086957,2146920146,2147722112,2147121005,541,0,8,6903
1365871954,5805,1012.7999877929688000,234.2633056640625000,543.5140991210938000,6.1728591918945310,36.7214889526367200,53,103,97,79,81,11440,2146959296,2147515766,2147298669,2147519707,2147086272,2146917842,2147725970,2147122358,1187,0,8,47595
1365875554,5805,1018.7800292968750000,237.6930999755859400,544.5270996093750000,6.1411108970642090,36.5606117248535160,52,103,98,79,82,11444,2146963190,2147521536,2147299090,2147520859,2147086592,2146919497,2147727360,2147120768,3431,-1,8,18790
1365879154,5807,1029.0500488281250000,235.2108001708984400,542.7337036132812000,6.1973128318786620,36.6574897766113300,52,104,97,78,81,11445,2146961243,2147517769,2147297334,2147516443,2147087707,2146917878,2147729856,2147125074,255,-1,8,57227
1365882754,5805,1021.4500122070312000,232.0838012695312500,541.7540893554688000,6.2280030250549320,36.8045501708984400,52,103,97,79,81,11427,2146957266,2147523017,2147299648,2147517056,2147086299,2146925357,2147720978,2147124077,2788,0,8,65345
1365886354,5805,1033.4799804687500000,237.1734008789062500,542.5355834960938000,6.2035198211669920,36.5522613525390600,51,104,98,79,80,11442,2146958921,2147518884,2147298962,2147520457,2147086756,2146915574,2147728649,2147121252,393,0,8,5616
1365889954,5806,1019.3800048828125000,236.3231964111328000,542.4998168945312000,6.2046408653259280,36.5956611633300800,52,103,97,80,80,11441,2146963812,2147517952,2147297773,2147517339,2147085622,2146918948,2147724489,2147120960,126,-1,8,6565
1365893554,5808,1020.3499755859375000,239.6468963623047000,546.3325805664062000,6.0845031738281250,36.4928588867187500,52,108,98,79,80,11439,2146960466,2147517074,2147300278,2147521600,2147083712,2146916461,2147723437,2147121014,273,0,8,2960
1365897154,5806,1024.9799804687500000,234.5746002197265600,544.1497192382812000,6.1529388427734375,36.7170486450195300,52,102,99,80,80,11439,2146965275,2147519789,2147298212,2147516973,2147085897,2146923437,2147730048,2147122157,69,0,8,53705
1365900754,5807,1016.4899902343750000,235.2994995117187500,544.0897216796875000,6.1548209190368650,36.6776695251464840,53,105,98,78,80,11430,2146964096,2147521051,2147299218,2147521142,2147087396,2146925220,2147727981,2147123620,3541,0,8,11665
1365904354,5807,1023.7399902343750000,238.8699951171875000,543.9260864257812000,6.1599478721618650,36.4898910522460940,52,102,97,79,81,11439,2146962002,2147521737,2147298294,2147519213,2147086400,2146917403,2147726866,2147122852,76,0,8,24669
1365907954,5806,1040.7199707031250000,238.1790924072265600,542.2965698242188000,6.2110080718994140,36.4958305358886700,52,103,97,80,81,11438,2146962221,2147517604,2147297142,2147519195,2147084717,2146914075,2147727213,2147122624,3137,0,8,64150
1365911554,5807,1040.4799804687500000,234.5030059814453000,541.8114013671875000,6.2262058258056640,36.6779518127441400,52,102,98,79,80,11428,2146961042,2147519890,2147298203,2147518701,2147087369,2146920365,2147728073,2147123858,3575,0,8,32949
1365915154,5806,1031.8499755859375000,235.0776977539062500,540.2222290039062000,6.2759761810302730,36.6196289062500000,52,101,97,79,81,11434,2146963456,2147517321,2147297115,2147516333,2147085339,2146925174,2147725860,2147119643,3210,-1,8,45240
1365918754,5807,1010.1799926757812000,228.1454925537109400,532.7932739257812000,6.5083827972412110,36.8545188903808600,52,101,96,80,81,11430,2146961261,2147521481,2147297435,2147515318,2147086116,2146923940,2147724315,2147121910,49,0,8,22606
1365922354,5806,1006.7000122070312000,227.5032043457031200,532.5144042968750000,6.5171008110046390,36.8840904235839840,52,101,97,80,81,11434,2146964598,2147516845,2147295771,2147514112,2147089883,2146919963,2147724105,2147124864,3478,0,8,15894
1365925954,5808,1002.4400024414062000,227.7725982666015600,533.5446777343750000,6.4848937988281250,36.8878288269043000,52,102,98,81,80,11430,2146960118,2147520612,2147295259,2147515300,2147085339,2146915648,2147724269,2147120667,1812,0,8,56908
1365929554,5805,997.5800170898438000,226.7019958496093800,533.8447875976562000,6.4755129814147950,36.9511299133300800,52,100,97,80,81,11433,2146961042,2147519817,2147300754,2147516443,2147087387,2146920338,2147722788,2147122395,2629,0,8,12171
1365933154,5807,1007.2899780273438000,227.5657043457031200,533.9968872070312000,6.4707570075988770,36.9069709777832000,53,107,98,78,79,11433,2146961179,2147515830,2147296667,2147516662,2147086921,2146923328,2147724370,2147124077,3289,-1,8,24
1365936754,5805,1008.1300048828125000,226.9207000732422000,532.1782836914062000,6.5276050567626950,36.9099693298339840,52,101,98,79,81,11430,2146962496,2147521444,2147298816,2147519826,2147085120,2146922249,2147723766,2147124269,3516,-1,8,42212
1365940354,5805,1001.6400146484375000,227.2498931884765600,533.8067016601562000,6.4767041206359860,36.9208793640136700,52,102,98,79,80,11433,2146960365,2147520621,2147299026,2147518171,2147083172,2146920036,2147722907,2147123968,3075,0,8,51263
1365943954,5806,1000.7600097656250000,224.1988983154297000,533.9741821289062000,6.4714679718017580,37.0910110473632800,51,101,97,79,81,11431,2146963044,2147520173,2147300434,2147514843,2147084763,2146920384,2147725522,2147119360,803,0,8,8442
1365947554,5806,996.9799804687500000,230.3845977783203000,536.1781005859375000,6.4025459289550780,36.7953910827636700,53,101,98,78,81,11428,2146962148,2147523026,2147297216,2147516681,2147088502,2146920237,2147725769,2147120576,2867,0,8,52052
1365950155,5805,997.7399902343750000,230.3092956542968800,536.2376708984375000,6.4006810188293460,36.8004798889160160,53,102,97,79,79,11410,2146960045,2147518848,2147298523,2147518317,2147085101,2146920557,2147720813,2147123099,2943,-1,8,40614
